Weather Service Report


261 
ASUS43 KLOT 030021
RWRIL 

ILLINOIS REGIONAL WEATHER ROUNDUP
NATIONAL WEATHER SERVICE CHICAGO/ROMEOVILLE IL
700 PM CDT THU JUL 02 2015

NOTE: "FAIR" INDICATES FEW OR NO CLOUDS BELOW 12,000 FEET WITH NO
SIGNIFICANT WEATHER AND/OR OBSTRUCTIONS TO VISIBILITY.

* THESE STATIONS ARE NOT UNDER NWS QUALITY CONTROL. THEY ALSO MAY NOT
  REPORT WEATHER SUCH AS PRECIPITATION OR FOG.

ILZ001-002-007-009-015-016-024-030100-
NORTHWEST ILLINOIS
  
CITY           SKY/WX    TMP DP  RH WIND       PRES   REMARKS
MOLINE         CLOUDY    70  58  65 MISG      29.95F                  
6HR MIN TEMP:  70; 6HR MAX TEMP:  73;                                

STERLING*      CLOUDY    68  57  68 NE7       29.96S                  
SAVANNA*       CLOUDY    70  53  54 NE6       29.96F                  
$$

ILZ003-004-008-010-011-017-018-030100-
NORTH CENTRAL ILLINOIS
  
CITY           SKY/WX    TMP DP  RH WIND       PRES   REMARKS
ROCKFORD       CLOUDY    71  51  49 NE9       29.98S                  
6HR MIN TEMP:  70; 6HR MAX TEMP:  74;                                

FREEPORT*      PTSUNNY   66  51  57 NE6       29.99S                  
ROCHELLE*      PTSUNNY   68  56  64 E9        29.97S                  
DE KALB*       PTSUNNY   65  53  63 NE9       29.98S                  
PERU*          CLOUDY    70  56  61 NE10      29.95S                  
$$

ILZ005-006-012>014-019>023-030100-
NORTHEAST ILLINOIS
  
CITY           SKY/WX    TMP DP  RH WIND       PRES   REMARKS
CHICAGO-OHARE  PTSUNNY   63  52  67 NE8       29.97F                  
6HR MIN TEMP:  63; 6HR MAX TEMP:  69;                                

CHICAGO-MIDWAY PTSUNNY   66  54  65 NE12      29.96F                  
6HR MIN TEMP:  66; 6HR MAX TEMP:  71;                                

AURORA         PTSUNNY   69  54  58 E9        29.97S                  
6HR MIN TEMP:  68; 6HR MAX TEMP:  72;                                

LANSING*       MOSUNNY   62  54  75 N9        29.97S                  
JOLIET*        PTSUNNY   69  57  66 NE10      29.95F                  
WAUKEGAN       SUNNY     59  50  72 N8        29.99F                  
6HR MIN TEMP:  59; 6HR MAX TEMP:  65;                                

DUPAGE AIRPORT MOSUNNY   66  53  63 NE10      29.96F                  
6HR MIN TEMP:  66; 6HR MAX TEMP:  70;                                

KANKAKEE*      CLOUDY    68  59  74 NE7       29.94S                  
WHEELING       SUNNY     62  51  67 NE9       29.99F                  
6HR MIN TEMP:  62; 6HR MAX TEMP:  66;                                

MORRIS*        PTSUNNY   69  56  62 E7        29.93S                  
ROMEOVILLE*    PTSUNNY   67  54  63 NE9       29.96S                  
NORTHERLY ISL    N/A     60  53  77 N15         N/A                   
$$

LMZ740>746-030100-
SOUTHERN LAKE MICHIGAN
  
STATION/POSITION SKY/WX   TEMP    WIND        PRES    VSBY  WAVE
                          AIR SEA DIR/SP/G                  HT/PER
                          (F)     (DEG/KT/KT) (MB)    (MI)  (FT/S)
HARRISON CRIB              57     360/ 16/ 19   N/A
BURNHAM HARBOR             59     360/ 13/ 15   N/A
CALUMET HARBOR             60     340/ 13/ 17   N/A
BURNS HARBOR               62      20/ 11/ 15 1015.6S
MICHIGAN CITY              62      20/ 17/ 19   N/A
MICHIGAN CITY 6N           63 64   40/ 16/ 19   N/A           5/ 4
ST. JOSEPH                 60 63                N/A           3/ 4
$$

ILZ025>027-034>036-040-047-049-050-058-095>099-030100-
WEST-CENTRAL ILLINOIS
  
CITY           SKY/WX    TMP DP  RH WIND       PRES   REMARKS
QUINCY         PTSUNNY   69  59  70 NE8       29.94S                  
GALESBURG*     CLOUDY    68  58  69 NE7       29.95S                  
MACOMB*        CLOUDY    68  61  79 N3        29.96F                  
JACKSONVILLE*  CLOUDY    72  63  73 N7        29.92S                  
PITTSFIELD*    PTSUNNY   69  61  75 N5        29.94S                  
$$

ILZ028>032-037-038-041>044-048-051>054-059>061-030100-
CENTRAL ILLINOIS
  
CITY           SKY/WX    TMP DP  RH WIND       PRES   REMARKS
PONTIAC        PTSUNNY   71  61  70 NE8       29.94S                  
BLOOMINGTON    PTSUNNY   73  61  66 NE10      29.92F                  
DECATUR        CLOUDY    72  62  71 N6        29.90S                  
PEORIA         CLOUDY    73  58  59 NE6       29.93S                  
6HR MIN TEMP:  72; 6HR MAX TEMP:  77;                                

LACON*         CLOUDY    70  58  66 CALM      29.93S                  
LINCOLN*       CLOUDY    73  62  66 CALM      29.91R                  
SPRINGFIELD    CLOUDY    74  61  63 N5        29.91S                  
6HR MIN TEMP:  72; 6HR MAX TEMP:  76;                                

TAYLORVILLE    CLOUDY    70  63  78 N5        29.90S                  
$$

ILZ033-039-045-046-055>057-062-063-030100-
EAST-CENTRAL ILLINOIS
  
CITY           SKY/WX    TMP DP  RH WIND       PRES   REMARKS
CHAMPAIGN      PTSUNNY   74  62  66 NE8       29.89F                  
DANVILLE*      PTSUNNY   73  62  70 NE7       29.88R                  
RANTOUL*       PTSUNNY   76  60  57 NE7       29.91S                  
MATTOON        CLOUDY    74  66  76 N5        29.87F                  
PARIS*         PTSUNNY   75  66  72 N5        29.89R                  
$$

ILZ079-100>102-030100-
SOUTHWEST ILLINOIS
  
CITY           SKY/WX    TMP DP  RH WIND       PRES   REMARKS
BELLEVILLE     CLOUDY    75  70  83 N3        29.86S                  
CAHOKIA*       CLOUDY    76  65  68 N10       29.88R                  
SPARTA*        CLOUDY    75  68  80 NE5       29.88R                  
$$

ILZ064>066-069>071-074>076-080>082-084>086-088>090-092>094-030100-
SOUTH-CENTRAL ILLINOIS
  
CITY           SKY/WX    TMP DP  RH WIND       PRES   REMARKS
CARBONDALE     CLOUDY    74  68  81 N3        29.86S                  
6HR MIN TEMP:  74; 6HR MAX TEMP:  80;                                

CAIRO*         CLOUDY    80  71  75 N7        29.83R HX  83           
EFFINGHAM*     CLOUDY    74  62  66 N6        29.88F                  
MARION         CLOUDY    73  70  88 N3        29.86S                  
MT. VERNON     CLOUDY    73  66  78 CALM      29.87S                  
CENTRALIA*     PTSUNNY   74  66  76 CALM      29.87S                  
SALEM*         PTSUNNY   76  67  74 N7        29.87S                  
METROPOLIS*    CLOUDY    81  73  78 N6        29.83S HX  85           
$$

ILZ067-068-072-073-078-083-087-091-030100-
SOUTHEAST ILLINOIS
  
CITY           SKY/WX    TMP DP  RH WIND       PRES   REMARKS
LAWRENCEVILLE  PTSUNNY   76  69  79 N6        29.85S                  
FLORA*         PTSUNNY   76  68  76 NE3       29.86S                  
FAIRFIELD*     CLOUDY    74  69  85 N3        29.85R                  
HARRISBURG*    CLOUDY    74  71  88 N6        29.86S                  
ROBINSON*      PTSUNNY   76  68  75 N3        29.86S                  
CARMI*         CLOUDY    75  66  73 N7        29.84S                  
$$

ABBREVIATIONS USED IN REMARKS
   TC - TEMPERATURE IN CELSIUS
  WCI - WIND CHILL INDEX
   HX - HEAT INDEX
  VSB - VISIBILITY
$$


Return to Home page


Western Regional Climate Center, wrcc@dri.edu